DORR-WX Weather Reports


Display with metric or nautical units.
time (UTC)temp
F
wind
direction
speed
MPH
gust
MPH
rain 1hr
in
rain 24hr
in
rain mn
in
humidity
%
barometer
mb
20260503021610 39 212 4.0 0.0 0.00 0.00 0.00 70 992.1
20260503020140 39 225 4.0 0.0 0.00 0.00 0.00 70 992.1
20260503014610 40 235 5.0 0.0 0.00 0.00 0.00 64 991.7
20260503013128 40 239 5.0 0.0 0.00 0.00 0.00 64 991.7
20260503011610 41 237 5.0 0.0 0.00 0.00 0.00 64 991.7
20260503010140 42 243 5.0 0.0 0.00 0.00 0.00 64 991.7
20260503004609 42 245 5.0 0.0 0.00 0.00 0.00 48 992.5
20260503003123 43 242 4.0 0.0 0.00 0.00 0.00 46 992.6
20260503001610 44 252 4.0 0.0 0.00 0.00 0.00 46 992.6
20260503000145 45 270 4.0 0.0 0.00 0.00 0.00 46 992.6
20260502234611 46 290 5.0 0.0 0.00 0.00 0.00 38 992.6
20260502233123 46 289 6.0 0.0 0.00 0.00 0.00 39 992.6
20260502231611 47 291 7.0 0.0 0.00 0.00 0.00 39 992.6
20260502230137 47 292 8.0 0.0 0.00 0.00 0.00 39 992.6
20260502224611 47 290 9.0 0.0 0.00 0.00 0.00 39 992.9
20260502223129 47 288 10.0 0.0 0.00 0.00 0.00 37 993.8
20260502221611 47 283 10.0 0.0 0.00 0.00 0.00 37 993.8
20260502220138 47 281 11.0 0.0 0.00 0.00 0.00 37 993.8
20260502214611 47 281 12.0 0.0 0.00 0.00 0.00 41 993.9
20260502213129 47 278 12.0 0.0 0.00 0.00 0.00 43 993.5
20260502211611 47 275 12.0 0.0 0.00 0.00 0.00 43 993.5
20260502210140 47 274 12.0 0.0 0.00 0.00 0.00 43 993.5
20260502204610 47 272 11.0 0.0 0.00 0.00 0.00 43 994.0
20260502203129 47 270 11.0 0.0 0.00 0.00 0.00 43 994.4
20260502201611 47 271 11.0 0.0 0.00 0.00 0.00 43 994.4
20260502200137 47 271 12.0 0.0 0.00 0.00 0.00 43 994.4
20260502194611 47 271 12.0 0.0 0.00 0.00 0.00 34 994.7
20260502193124 47 272 12.0 0.0 0.00 0.00 0.00 34 994.7
20260502191611 47 275 13.0 0.0 0.00 0.00 0.00 34 994.7
20260502190139 48 279 13.0 0.0 0.00 0.00 0.00 34 994.7
20260502184611 47 280 12.0 0.0 0.00 0.00 0.00 41 994.5
20260502183130 47 290 12.0 0.0 0.00 0.00 0.00 42 994.5
20260502181610 47 287 12.0 0.0 0.00 0.00 0.00 42 994.5
20260502180145 46 284 12.0 0.0 0.00 0.00 0.00 42 994.5
20260502170135 46 278 11.0 0.0 0.00 0.00 0.00 44 995.1
20260502163130 46 280 10.0 0.0 0.00 0.00 0.00 43 994.0
20260502161610 45 282 9.0 0.0 0.00 0.00 0.00 43 994.0
20260502160141 45 285 9.0 0.0 0.00 0.00 0.00 43 994.0
20260502151611 43 297 7.0 0.0 0.00 0.00 0.00 52 994.2
20260502150144 43 293 7.0 0.0 0.00 0.00 0.00 52 994.2
20260502130139 37 336 4.0 0.0 0.00 0.00 0.00 74 994.6
20260502123128 36 331 4.0 0.0 0.00 0.00 0.00 79 994.7
20260502121611 35 332 4.0 0.0 0.00 0.00 0.00 79 994.7
20260502120154 34 319 4.0 0.0 0.00 0.00 0.00 79 994.7
20260502114611 33 300 3.0 0.0 0.00 0.00 0.00 86 994.6
20260502113132 32 306 1.0 0.0 0.00 0.00 0.00 86 994.6
20260502111611 32 304 1.0 0.0 0.00 0.00 0.00 86 994.5
20260502110140 32 310 1.0 0.0 0.00 0.00 0.00 86 994.5
20260502104610 31 315 0.0 0.0 0.00 0.00 0.00 85 994.2
20260502103129 32 7 1.0 0.0 0.00 0.00 0.00 83 994.5
20260502101610 32 349 1.0 0.0 0.00 0.00 0.00 83 994.5
20260502100140 32 321 1.0 0.0 0.00 0.00 0.00 83 994.5
20260502090139 32 297 1.0 0.0 0.00 0.00 0.00 84 994.0
20260502070141 32 325 3.0 0.0 0.00 0.00 0.00 82 993.2
20260502064610 32 322 3.0 0.0 0.00 0.00 0.00 78 994.4
20260502063130 32 295 3.0 0.0 0.00 0.00 0.00 80 994.4
20260502061610 32 286 3.0 0.0 0.00 0.00 0.00 80 994.4
20260502060156 32 295 4.0 0.0 0.00 0.00 0.00 80 994.4
20260502054610 32 299 4.0 0.0 0.00 0.00 0.00 75 993.6
20260502053129 33 303 4.0 0.0 0.00 0.00 0.00 76 994.0
20260502051609 33 321 4.0 0.0 0.00 0.00 0.00 76 994.0
20260502050141 33 325 5.0 0.0 0.00 0.00 0.00 76 994.0
20260502044611 33 324 5.0 0.0 0.00 0.00 0.00 73 993.5
20260502043128 34 338 5.0 0.0 0.00 0.00 0.00 75 993.6
20260502041610 34 335 5.0 0.0 0.00 0.00 0.00 75 993.6
20260502040142 34 332 6.0 0.0 0.00 0.00 0.00 75 993.6
20260502034610 34 332 7.0 0.0 0.00 0.00 0.00 67 993.1
20260502033129 35 323 5.0 0.0 0.00 0.00 0.00 73 992.6
20260502031609 35 331 5.0 0.0 0.00 0.00 0.00 73 992.6
20260502030140 35 329 6.0 0.0 0.00 0.00 0.00 73 992.6
20260502024608 35 329 6.0 0.0 0.00 0.00 0.00 68 992.0
20260502023127 35 333 7.0 0.0 0.00 0.00 0.00 71 993.0